Location: *
(47.6569°N, 7.4256°E)
Time: 08:19:43
(UTC+00:00)

Meteor 2-8 Rocket - Pass Details

Date: 14 December 2019
Orbit: 936 x 958 km, 82.5° (Epoch: 20 January)

Event Time Altitude Azimuth Distance (km) Brightness Sun altitude
Rises 18:24:57 0° 350° (N) 3,609 7.5 -26.9°
Reaches altitude 10° 18:27:27 10° 351° (N) 2,660 6.8 -27.3°
Maximum altitude 18:33:32 85° 81° (E) 948 4.2 -28.3°
Enters shadow 18:34:19 70° 157° (SSE) 998 4.4 -28.4°
Exits shadow 18:40:14 - 170° (S) 2,885 6.9 -29.4°
Sets 18:42:04 0° 171° (S) 3,587 7.4 -29.7°
